Погода в Биограде-на-Мору

Хорватия     43°56′26″N   15°26′58″E
темп.,
°C
ветер,
м/с
пор.,
м/с
влажн.,
%
обл.,
%
осадки,
мм/ч
давл.,
гПа
погр.,
м
17 октября, вс
вс1723:00+11св226689 0.0 101832
02:00+10св226565 0.0 101821
05:00+9св2262100 0.0 101821
08:00+10св226461 0.0 101837
11:00+16ссв12478 0.0 1019372
14:00+19зсз22395 0.0 10191149
17:00+17зсз44515 0.0 1019378
20:00+13ссз34725 0.0 102058
18 октября, пн
пн1823:00+12с22721 0.0 102125
02:00+11св22730 0.0 102216
05:00+10св21740 0.0 102115
08:00+10св21725 0.0 102216
11:00+16ссз2251100 0.0 1023440
14:00+18зсз4448100 0.0 1023831
17:00+16сз4562100 0.0 1023339
20:00+13ссз34730 0.0 102465
19 октября, вт
вт1923:00+11св22750 0.0 102618
02:00+10св22758 0.0 102616
05:00+9св22755 0.0 102615
08:00+10св2271100 0.0 102717
11:00+16ссз114739 0.0 1027313
14:00+19з324288 0.0 1027742
17:00+17зсз3458100 0.0 1026373
20:00+13ссз2268100 0.0 102725
20 октября, ср
ср2023:00+12ссв116977 0.0 102717
02:00+11св117083 0.0 102716
05:00+10св11695 0.0 102615
08:00+11всв11665 0.0 102716
11:00+17ююв11490 0.0 1027427
14:00+18ююз32530 0.0 1026743
17:00+17ююз22615 0.0 1025435
20:00+14юв22765 0.0 102425
21 октября, чт
чт2123:00+13вюв45775 0.0 102483
02:00+12в337912 0.0 102352
05:00+12в3383100 0.0 102245
08:00+12в338184 0.0 102161
11:00+17юв5871100 0.1 1022675
14:00+19ююв9962100 0.4 10201131
17:00+17ююв71072100 0.0 1018674
20:00+15вюв48855 0.0 1018207